Caribou, ME

2:35 AM EST on February 18, 2018 (GMT -0500)
Caribou Municipal

Weather History for KCAR - October, 2012

Change the Weather History Date:

Friday, October 12, 2012

  Actual Average Record
Temperature  
Mean Temperature 38 °F 45 °F  
Max Temperature 43 °F 54 °F 76 °F (1949)
Min Temperature 32 °F 36 °F 21 °F (1987)
Degree Days  
Heating Degree Days 27 20  
Month to date heating degree days 202 218  
Since 1 July heating degree days 487 685  
Cooling Degree Days 0 0  
Month to date cooling degree days 0 0  
Year to date cooling degree days 279 180  
Moisture  
Dew Point 30 °F    
Average Humidity 71    
Maximum Humidity 92    
Minimum Humidity 49    
Precipitation  
Precipitation 0.08 in 0.11 in 1.49 in (2007)
Month to date precipitation 2.17 1.36  
Year to date precipitation 32.12 29.42  
Snow  
Snow T in 0.10 in 0.10 in (1958)
Month to date snowfall T 0.2  
Since 1 July snowfall T 0.3  
Since 1 September snowfall T 0.3  
Snow Depth 0.00 in    
Sea Level Pressure  
Sea Level Pressure 29.93 in    
Wind  
Wind Speed 9 mph (West)    
Max Wind Speed 22 mph    
Max Gust Speed 35 mph    
Visibility 10 miles    
Events Rain , Snow    
T = Trace of Precipitation, MM = Missing Value Source: NWS Daily Summary

Daily Weather History Graph

Daily Weather History Graph

Search for Another Location

Airport or City:

Trip Planner

Search our weather history database for the weather conditions in past years. The results will help you decide how hot, cold, wet, or windy it might be!

Date:

Astronomy

Oct. 12, 2012 Rise Set
Actual Time 6:46 AM EDT 5:49 PM EDT
Civil Twilight 6:15 AM EDT 6:20 PM EDT
Nautical Twilight 5:40 AM EDT 6:55 PM EDT
Astronomical Twilight 5:05 AM EDT 7:30 PM EDT
Moon 3:14 AM EDT (10/12) 4:05 PM EDT (10/12)
Length of Visible Light 12h 04m
Length of Day
11h 03m
Waning Crescent, 11% of the Moon is Illuminated
Oct 12
Waning Crescent
Oct 15
New
Oct 21
First Quarter
Oct 29
Full
Nov 6
Last Quarter

Hourly Weather History & Observations

Time (EDT) Temp. Windchill Dew Point Humidity Pressure Visibility Wind Dir Wind Speed Gust Speed Precip Events Conditions
12:54 AM 34.0 °F 29.8 °F 27.0 °F 75% 29.95 in 10.0 mi SW 4.6 mph - N/A   Mostly Cloudy
1:54 AM 34.0 °F 28.8 °F 28.9 °F 82% 29.94 in 10.0 mi SSE 5.8 mph - N/A   Overcast
2:54 AM 36.0 °F - 30.0 °F 79% 29.91 in 10.0 mi Calm Calm - N/A   Overcast
3:20 AM 35.6 °F - 30.2 °F 81% 29.87 in 6.0 mi Calm Calm - 0.01 in Snow Light Snow
4:54 AM 35.1 °F 32.2 °F 33.1 °F 92% 29.83 in 10.0 mi East 3.5 mph - 0.04 in Rain Light Rain
5:05 AM 35.6 °F - 33.8 °F 93% 29.80 in 10.0 mi Calm Calm - 0.00 in Rain Light Rain
5:54 AM 36.0 °F 31.1 °F 34.0 °F 93% 29.81 in 10.0 mi SSE 5.8 mph - 0.00 in   Overcast
6:54 AM 37.0 °F 34.5 °F 35.1 °F 93% 29.82 in 10.0 mi South 3.5 mph - N/A   Overcast
7:54 AM 37.9 °F 34.4 °F 36.0 °F 93% 29.83 in 10.0 mi SW 4.6 mph - 0.00 in   Clear
8:54 AM 41.0 °F 38.0 °F 37.9 °F 89% 29.83 in 10.0 mi SW 4.6 mph - N/A   Scattered Clouds
9:27 AM 39.2 °F 34.2 °F 35.6 °F 87% 29.81 in 4.0 mi WNW 6.9 mph 21.9 mph 0.02 in Rain Rain
9:39 AM 39.2 °F 35.9 °F 35.6 °F 87% 29.81 in 10.0 mi West 4.6 mph - 0.02 in   Mostly Cloudy
10:43 AM 42.8 °F 38.6 °F 37.4 °F 81% 29.82 in 10.0 mi West 6.9 mph - N/A   Mostly Cloudy
10:54 AM 42.1 °F 35.2 °F 37.0 °F 82% 29.86 in 8.0 mi West 12.7 mph 19.6 mph 0.00 in Rain Light Rain
11:16 AM 39.2 °F 31.2 °F 35.6 °F 87% 29.85 in 10.0 mi NNW 13.8 mph 23.0 mph 0.00 in   Overcast
11:51 AM 39.2 °F 30.8 °F 33.8 °F 81% 29.86 in 10.0 mi North 15.0 mph 24.2 mph 0.00 in   Mostly Cloudy
12:54 PM 41.0 °F 33.1 °F 30.0 °F 65% 29.92 in 10.0 mi NNW 15.0 mph 26.5 mph N/A   Mostly Cloudy
1:54 PM 42.1 °F 33.6 °F 27.0 °F 55% 29.94 in 10.0 mi NW 18.4 mph 24.2 mph N/A   Scattered Clouds
2:54 PM 42.1 °F 34.2 °F 25.0 °F 51% 29.96 in 10.0 mi NW 16.1 mph 24.2 mph N/A   Mostly Cloudy
3:54 PM 39.9 °F 32.1 °F 23.0 °F 51% 29.99 in 10.0 mi NW 13.8 mph 18.4 mph N/A   Overcast
4:54 PM 39.9 °F 31.8 °F 24.1 °F 53% 30.00 in 10.0 mi NW 15.0 mph 25.3 mph N/A   Overcast
6:54 PM 35.1 °F 27.9 °F 21.9 °F 59% 30.07 in 10.0 mi WNW 9.2 mph - N/A   Clear
7:54 PM 33.1 °F 27.7 °F 23.0 °F 66% 30.09 in 10.0 mi WNW 5.8 mph - N/A   Clear
8:54 PM 32.0 °F 27.5 °F 24.1 °F 73% 30.10 in 10.0 mi West 4.6 mph - N/A   Clear
10:54 PM 33.1 °F 24.9 °F 24.1 °F 70% 30.13 in 10.0 mi WNW 10.4 mph - N/A   Clear
11:54 PM 33.1 °F 24.4 °F 24.1 °F 70% 30.14 in 10.0 mi WNW 11.5 mph 17.3 mph N/A   Clear